Flag for Canada Weather past 2 weeks in Camrose, Alberta, Canada

Now
48 °F

Mostly cloudy.


Feels Like: 43 °F
Forecast: 46 / 56 °F
Wind: 13 mph from Northwest

Location: Edmonton International

Current Time: Sep 30, 2014 at 10:17:52 AM

Latest Report: Sep 30, 2014 at 9:00 AM


Visibility: 15 mi

Pressure: 29.69 "Hg

Humidity: 87%

Dew point: 45 °F

Location of CamroseLocation

Historic Weather in Camrose — Graph

°F

Camrose temperature yesterday

Maximum temperature yesterday: 64 °F (at 4:00 PM)
Minimum temperature yesterday: 43 °F (at 11:00 PM)
Average temperature yesterday: 52 °F

Past Weeks' High & Low Weather Summary

 TemperatureHumidityPressure
High84 °F (Sep 22, 3:00 PM)100% (Sep 16, 8:00 AM)30.48 "Hg (Sep 16, 8:00 AM)
Low36 °F (Sep 16, 7:00 AM)20% (Sep 22, 3:00 PM)29.55 "Hg (Sep 18, 6:00 AM)
Average55 °F69%29.89 "Hg
* Reported Sep 15 9:00 AM — Sep 30 9:00 AM, Camrose, Weather by CustomWeather, © 2014

Note: Actual official high and low records may vary slightly from our data, if they occured in-between our weather recording intervals... More about our weather records

Advertising

Camrose weather history for previous 24 hours

 ConditionsComfort  
Time TempWeatherWind HumidityBarometerVisibility
9:00 AM
Sep 30
48 °FMostly cloudy.13 mph87%29.69 "Hg15 mi
8:47 AM48 °FSprinkles. Cloudy.14 mph87%29.68 "Hg15 mi
8:00 AM50 °FSprinkles. Overcast.12 mph88%29.67 "Hg15 mi
7:00 AM50 °FPartly cloudy.12 mph88%29.65 "Hg15 mi
6:46 AM50 °FPartly cloudy.12 mph88%29.64 "Hg15 mi
6:00 AM50 °FPassing clouds.9 mph88%29.63 "Hg15 mi
5:57 AM50 °FLight rain. Passing clouds.10 mph88%29.62 "Hg15 mi
5:00 AM46 °FPartly cloudy.5 mph93%29.63 "Hg15 mi
4:00 AM46 °FPartly cloudy.3 mph93%29.62 "Hg15 mi
3:00 AM46 °FPassing clouds.8 mph93%29.60 "Hg15 mi
2:00 AM45 °FPassing clouds.6 mph100%29.58 "Hg15 mi
1:00 AM39 °FFog.3 mph100%29.59 "Hg15 mi
12:00 AM39 °FPassing clouds.2 mph100%29.59 "Hg15 mi
11:00 PM
Sep 29
43 °FPassing clouds.6 mph93%29.60 "Hg15 mi
10:00 PM46 °FPassing clouds.2 mph87%29.59 "Hg15 mi
9:00 PM50 °FPartly cloudy.6 mph82%29.60 "Hg15 mi
8:00 PM54 °FPartly sunny.9 mph77%29.60 "Hg15 mi
7:00 PM57 °FPartly sunny.9 mph67%29.61 "Hg15 mi
6:00 PM61 °FPartly sunny.10 mph59%29.62 "Hg15 mi
5:00 PM63 °FBroken clouds.13 mph56%29.62 "Hg15 mi
4:00 PM64 °FBroken clouds.8 mph52%29.63 "Hg15 mi
3:00 PM63 °FBroken clouds.9 mph52%29.64 "Hg15 mi
2:00 PM63 °FPartly sunny.13 mph56%29.66 "Hg15 mi
1:00 PM59 °FBroken clouds.15 mph63%29.69 "Hg15 mi
12:00 PM55 °FPartly sunny.21 mph67%29.72 "Hg15 mi
11:00 AM54 °FPartly sunny.20 mph67%29.74 "Hg15 mi
10:00 AM50 °FOvercast.17 mph76%29.75 "Hg15 mi
Weather by CustomWeather, © 2014

See weather overviewHow to use our weather pages